When you browse on this site, cookies collect data to enhance your experience and personalize the content and advertising you see.
Visit our Privacy Policy to learn more. By continuing to use the site, you agree to this use of cookies and data.
  • En España
  • Lista de países
  • Para 7 días
  • Temperatura del agua
  • Mapa Satelital
  • El tiempo en el mapa
  • Informadores
  • user-avatar
    Iniciar sesión

    Tiempo cada hora Jambol

    Hoy, 17 Noviembre, Sábado

    Tiempo Temperatura Precipitaciones Viento Presión Humedad
    00:00 0°C° 0 mm 3 mps 760 mmHg 76%
    01:00 0°C° 0 mm 3 mps 760 mmHg 76%
    02:00 -1°C° 0 mm 3 mps 761 mmHg 73%
    03:00 -1°C° 0 mm 3 mps 760 mmHg 74%
    04:00 -1°C° 0 mm 3 mps 760 mmHg 74%
    05:00 -1°C° 0 mm 2 mps 760 mmHg 75%
    06:00 -1°C° 0 mm 2 mps 760 mmHg 75%
    07:00 -1°C° 0 mm 2 mps 760 mmHg 75%
    08:00 -1°C° 0 mm 2 mps 760 mmHg 75%
    09:00 +2°C° 0 mm 2 mps 760 mmHg 70%
    10:00 +2°C° 0 mm 3 mps 760 mmHg 66%
    11:00 +3°C° 0 mm 3 mps 760 mmHg 61%
    12:00 +4°C° 0 mm 3 mps 760 mmHg 61%
    13:00 +5°C° 0 mm 3 mps 760 mmHg 60%
    14:00 +5°C° 0 mm 3 mps 759 mmHg 59%
    15:00 +5°C° 0 mm 3 mps 759 mmHg 62%
    16:00 +4°C° 0 mm 3 mps 759 mmHg 66%
    17:00 +4°C° 0 mm 3 mps 759 mmHg 70%
    18:00 +3°C° 0 mm 3 mps 759 mmHg 73%
    19:00 +3°C° 0 mm 3 mps 759 mmHg 76%
    20:00 +3°C° 0 mm 3 mps 759 mmHg 78%
    21:00 +3°C° 0 mm 3 mps 759 mmHg 79%
    22:00 +3°C° 0 mm 3 mps 759 mmHg 79%
    23:00 +3°C° 0 mm 3 mps 759 mmHg 79%

    Mañana, 18 Noviembre, Domingo

    Tiempo Temperatura Precipitaciones Viento Presión Humedad
    00:00 +3°C° 0 mm 3 mps 759 mmHg 80%
    01:00 +3°C° 0 mm 3 mps 758 mmHg 81%
    02:00 +3°C° 0 mm 3 mps 758 mmHg 81%
    03:00 +3°C° 0.1 mm 3 mps 758 mmHg 82%
    04:00 +3°C° 0.1 mm 3 mps 758 mmHg 82%
    05:00 +4°C° 0.1 mm 3 mps 757 mmHg 82%
    06:00 +4°C° 0 mm 3 mps 757 mmHg 83%
    07:00 +4°C° 0 mm 3 mps 757 mmHg 83%
    08:00 +4°C° 0 mm 3 mps 757 mmHg 83%
    09:00 +5°C° 0 mm 3 mps 757 mmHg 82%
    10:00 +7°C° 0 mm 3 mps 756 mmHg 81%
    11:00 +7°C° 0 mm 3 mps 756 mmHg 79%
    12:00 +7°C° 0.1 mm 4 mps 755 mmHg 79%
    13:00 +7°C° 0.1 mm 4 mps 755 mmHg 80%
    14:00 +7°C° 0.1 mm 4 mps 754 mmHg 80%
    15:00 +7°C° 0.2 mm 4 mps 753 mmHg 81%
    16:00 +7°C° 0.2 mm 5 mps 753 mmHg 83%
    17:00 +7°C° 0.2 mm 5 mps 752 mmHg 84%
    18:00 +7°C° 0.8 mm 5 mps 752 mmHg 85%
    19:00 +7°C° 0.8 mm 5 mps 751 mmHg 86%
    20:00 +7°C° 0.8 mm 6 mps 751 mmHg 87%
    21:00 +7°C° 1.4 mm 5 mps 750 mmHg 88%
    22:00 +7°C° 1.4 mm 5 mps 750 mmHg 88%
    23:00 +7°C° 1.4 mm 5 mps 749 mmHg 89%

    Pasado mañana, 19 Noviembre, Lunes

    Tiempo Temperatura Precipitaciones Viento Presión Humedad
    00:00 +7°C° 1.6 mm 5 mps 748 mmHg 89%
    01:00 +7°C° 1.6 mm 5 mps 748 mmHg 90%
    02:00 +8°C° 1.6 mm 5 mps 747 mmHg 90%
    03:00 +8°C° 3.1 mm 5 mps 746 mmHg 91%
    04:00 +8°C° 3.1 mm 4 mps 746 mmHg 92%
    05:00 +9°C° 3.1 mm 3 mps 745 mmHg 93%
    06:00 +9°C° 0.5 mm 3 mps 745 mmHg 91%
    07:00 +9°C° 0.5 mm 3 mps 745 mmHg 90%
    08:00 +9°C° 0.5 mm 3 mps 746 mmHg 89%
    09:00 +9°C° 0 mm 3 mps 746 mmHg 85%
    10:00 +10°C° 0 mm 3 mps 746 mmHg 81%
    11:00 +10°C° 0 mm 3 mps 747 mmHg 77%
    12:00 +11°C° 0 mm 3 mps 747 mmHg 74%
    13:00 +11°C° 0 mm 3 mps 747 mmHg 72%
    14:00 +12°C° 0 mm 3 mps 748 mmHg 69%
    15:00 +11°C° 0 mm 3 mps 748 mmHg 72%
    16:00 +10°C° 0 mm 3 mps 749 mmHg 75%
    17:00 +9°C° 0 mm 2 mps 749 mmHg 78%
    18:00 +8°C° 0 mm 2 mps 750 mmHg 80%
    19:00 +7°C° 0 mm 2 mps 751 mmHg 82%
    20:00 +7°C° 0 mm 2 mps 751 mmHg 84%
    21:00 +6°C° 0 mm 2 mps 752 mmHg 85%
    22:00 +7°C° 0 mm 1 mps 752 mmHg 86%
    23:00 +7°C° 0 mm 1 mps 753 mmHg 86%

    20 Noviembre, Martes

    Tiempo Temperatura Precipitaciones Viento Presión Humedad
    00:00 +7°C° 0 mm 1 mps 753 mmHg 86%
    01:00 +7°C° 0 mm 1 mps 753 mmHg 86%
    02:00 +7°C° 0 mm 1 mps 753 mmHg 85%
    03:00 +5°C° 0 mm 2 mps 753 mmHg 86%
    04:00 +5°C° 0 mm 2 mps 753 mmHg 86%
    05:00 +5°C° 0 mm 2 mps 753 mmHg 87%
    06:00 +6°C° 0 mm 2 mps 753 mmHg 86%
    07:00 +5°C° 0 mm 3 mps 753 mmHg 86%
    08:00 +7°C° 0 mm 3 mps 753 mmHg 86%
    09:00 +7°C° 0.1 mm 3 mps 753 mmHg 86%
    10:00 +8°C° 0.1 mm 3 mps 753 mmHg 87%
    11:00 +9°C° 0.1 mm 3 mps 753 mmHg 87%
    12:00 +10°C° 0.1 mm 3 mps 753 mmHg 87%
    13:00 +11°C° 0.1 mm 3 mps 752 mmHg 87%
    14:00 +11°C° 0.1 mm 3 mps 752 mmHg 86%
    15:00 +11°C° 0.1 mm 3 mps 751 mmHg 89%
    16:00 +11°C° 0.1 mm 3 mps 751 mmHg 91%
    17:00 +11°C° 0.1 mm 3 mps 751 mmHg 94%
    18:00 +12°C° 0.2 mm 3 mps 750 mmHg 94%
    19:00 +12°C° 0.2 mm 3 mps 750 mmHg 94%
    20:00 +12°C° 0.2 mm 3 mps 750 mmHg 94%
    21:00 +12°C° 0.1 mm 3 mps 750 mmHg 93%
    22:00 +13°C° 0.1 mm 3 mps 749 mmHg 92%
    23:00 +13°C° 0.1 mm 4 mps 749 mmHg 91%

    21 Noviembre, Miércoles

    Tiempo Temperatura Precipitaciones Viento Presión Humedad
    00:00 +13°C° 0.2 mm 3 mps 748 mmHg 91%
    01:00 +13°C° 0.2 mm 3 mps 748 mmHg 91%
    02:00 +13°C° 0.2 mm 3 mps 748 mmHg 91%
    03:00 +14°C° 0.4 mm 3 mps 747 mmHg 91%
    04:00 +14°C° 0.4 mm 4 mps 747 mmHg 92%
    05:00 +14°C° 0.4 mm 4 mps 747 mmHg 92%
    06:00 +14°C° 0.1 mm 4 mps 747 mmHg 93%
    07:00 +14°C° 0.1 mm 3 mps 747 mmHg 93%
    08:00 +14°C° 0.1 mm 3 mps 747 mmHg 94%
    09:00 +14°C° 0 mm 3 mps 747 mmHg 89%
    10:00 +16°C° 0 mm 3 mps 747 mmHg 84%
    11:00 +17°C° 0 mm 2 mps 748 mmHg 78%
    12:00 +18°C° 0 mm 2 mps 748 mmHg 73%
    13:00 +18°C° 0 mm 2 mps 748 mmHg 68%
    14:00 +19°C° 0 mm 2 mps 748 mmHg 63%
    15:00 +18°C° 0 mm 2 mps 748 mmHg 67%
    16:00 +18°C° 0 mm 1 mps 748 mmHg 71%
    17:00 +16°C° 0 mm 1 mps 748 mmHg 75%
    18:00 +15°C° 0 mm 1 mps 749 mmHg 77%
    19:00 +14°C° 0 mm 2 mps 749 mmHg 80%
    20:00 +13°C° 0 mm 2 mps 750 mmHg 82%
    21:00 +13°C° 0 mm 2 mps 750 mmHg 83%
    22:00 +12°C° 0 mm 1 mps 751 mmHg 84%
    23:00 +12°C° 0 mm 1 mps 751 mmHg 86%

    22 Noviembre, Jueves

    Tiempo Temperatura Precipitaciones Viento Presión Humedad
    00:00 +12°C° 0 mm 1 mps 751 mmHg 87%
    01:00 +11°C° 0 mm 1 mps 752 mmHg 88%
    02:00 +11°C° 0 mm 1 mps 752 mmHg 89%
    03:00 +10°C° 0 mm 1 mps 752 mmHg 90%
    04:00 +9°C° 0 mm 2 mps 752 mmHg 90%
    05:00 +9°C° 0 mm 2 mps 753 mmHg 91%
    06:00 +9°C° 0 mm 2 mps 753 mmHg 91%
    07:00 +9°C° 0 mm 2 mps 753 mmHg 90%
    08:00 +8°C° 0 mm 2 mps 754 mmHg 90%
    09:00 +9°C° 0 mm 2 mps 754 mmHg 84%
    10:00 +10°C° 0 mm 2 mps 755 mmHg 79%
    11:00 +11°C° 0 mm 3 mps 755 mmHg 73%
    12:00 +11°C° 0 mm 3 mps 755 mmHg 72%
    13:00 +11°C° 0 mm 3 mps 755 mmHg 71%
    14:00 +11°C° 0 mm 3 mps 755 mmHg 69%
    15:00 +10°C° 0 mm 3 mps 755 mmHg 71%
    16:00 +10°C° 0 mm 3 mps 755 mmHg 74%
    17:00 +9°C° 0 mm 3 mps 756 mmHg 76%
    18:00 +9°C° 0 mm 3 mps 756 mmHg 77%
    19:00 +8°C° 0 mm 3 mps 756 mmHg 78%
    20:00 +8°C° 0 mm 3 mps 757 mmHg 79%
    21:00 +7°C° 0 mm 3 mps 757 mmHg 81%
    22:00 +7°C° 0 mm 2 mps 757 mmHg 82%
    23:00 +6°C° 0 mm 2 mps 758 mmHg 84%
    Mostrar más